IRIDIUM 64 [-]

Last updated on Tue Apr 02 2019 03:15:00 GMT+0000 (Coordinated Universal Time)

1 25287U 98021C 19091.68972066 .17111958 -20646-5 26399-3 0 9997 2 25287 86.3901 309.3769 0070091 118.5464 242.9717 16.38686808 98986

Satellite not in orbit